Location: Barrio de Canyet
(41.4665°N, 2.2381°E)
Time: 03:47:00
(UTC+00:00)

IRIDIUM 114 - Pass Details

Date: 09 April 2020
Orbit: 776 x 779 km, 86.4° (Epoch: 31 May)

Event Time Altitude Azimuth Distance (km) Brightness Sun altitude
Rises 18:48:50 0° 0° (N) 3,272 7.8 -5.1°
Reaches altitude 10° 18:51:14 10° 4° (N) 2,340 7.0 -5.5°
Maximum altitude 18:56:25 61° 85° (E) 881 4.4 -6.5°
Drops below altitude 10° 19:01:34 10° 166° (SSE) 2,322 6.5 -7.4°
Sets 19:03:55 0° 169° (S) 3,244 7.3 -7.8°
